This is the latest recevied weather packets stored in our database for station/object JH7UAX-10. If no packets are shown the sender has not sent any weather packets the latest 10 day(s).
| Time | Temp. | Humidity | Pressure | Rain* | Wind** | Luminosity | Snow |
|---|---|---|---|---|---|---|---|
| 1777572005 | 5° C | 74% | 1027.9 hPa | 0 mm | - | - | - |
| 1777571578 | 5° C | 75% | 1027.7 hPa | 0 mm | - | - | - |
| 1777570678 | 5° C | 76% | 1027.7 hPa | 0 mm | - | - | - |
| 1777570207 | 5° C | 77% | 1027.7 hPa | 0 mm | - | - | - |
| 1777569778 | 4.44° C | 76% | 1027.8 hPa | 0 mm | - | - | - |
| 1777568878 | 5° C | 77% | 1028.2 hPa | 0 mm | - | - | - |
| 1777568406 | 5° C | 76% | 1028.3 hPa | 0 mm | - | - | - |
| 1777567978 | 5° C | 77% | 1028.3 hPa | 0 mm | - | - | - |
| 1777567505 | 5° C | 77% | 1028.4 hPa | 0 mm | - | - | - |
| 1777567077 | 5.56° C | 76% | 1028.4 hPa | 0 mm | - | - | - |
| 1777566179 | 6.67° C | 76% | 1028.8 hPa | 0 mm | - | - | - |
| 1777565706 | 6.67° C | 77% | 1028.9 hPa | 0 mm | - | - | - |
| 1777565278 | 6.67° C | 76% | 1029.1 hPa | 0 mm | - | - | - |
| 1777564377 | 7.78° C | 76% | 1029.2 hPa | 0 mm | - | - | - |
| 1777563905 | 7.78° C | 76% | 1029.4 hPa | 0 mm | - | - | - |
| 1777563477 | 7.78° C | 75% | 1029.5 hPa | 0 mm | - | - | - |
| 1777563005 | 7.78° C | 75% | 1029.9 hPa | 0 mm | - | - | - |
| 1777562577 | 6.67° C | 75% | 1030.1 hPa | 0 mm | - | - | - |
| 1777561679 | 6.67° C | 72% | 1030.2 hPa | 0 mm | - | - | - |
| 1777561205 | 6.67° C | 71% | 1030.3 hPa | 0 mm | - | - | - |
| 1777560779 | 7.22° C | 70% | 1030.3 hPa | 0 mm | - | - | - |
| 1777560305 | 7.22° C | 71% | 1030.3 hPa | 0 mm | - | - | - |
| 1777559878 | 7.22° C | 70% | 1030.5 hPa | 0 mm | - | - | - |
| 1777559405 | 7.78° C | 69% | 1030.7 hPa | 0 mm | - | - | - |
| 1777558978 | 7.78° C | 68% | 1030.9 hPa | 0 mm | - | - | - |
* Rain latest hour (hover to see other rain measurements)
** Current wind speed in m/s (hover to see current wind gust speed)